Regional Weather Roundup
Issued by NWS

Home | Current Version | Previous Version | Graphics & Text | Print | Product List | Glossary Off
Versions: 1 2 3 4 5 6 7 8 9 10 11 12 13 14 15 16 17 18 19 20 21 22 23 24 25 26 27 28 29 30 31 32 33 34 35 36 37 38 39 40 41 42 43 44 45 46 47 48 49 50

000
ASUS43 KMPX 210201
RWRMN
WEATHER ROUNDUP FOR MINNESOTA
NATIONAL WEATHER SERVICE TWIN CITIES/CHANHASSEN MN
900 PM CDT MON APR 20 2015


NOTE: "FAIR" INDICATES FEW OR NO CLOUDS BELOW 12,000 FEET WITH NO
SIGNIFICANT WEATHER AND/OR OBSTRUCTIONS TO VISIBILITY. N/A MEANS
CURRENT SKY AND/OR WEATHER CONDITIONS ARE NOT AVAILABLE.

MNZ060>063-068>070-210300-
   Twin Cities Metro

CITY           SKY/WX    TMP DP  RH WIND       PRES   REMARKS
TWIN CITIES    CLOUDY    40  30  67 W17G25    29.53S
ST PAUL        CLOUDY    40  30  67 W15G28    29.54R
CRYSTAL        CLOUDY    41  30  65 W15G21    29.52S
BLAINE         CLOUDY    41  30  65 W16G23    29.52R
LAKEVILLE      CLOUDY    37  30  75 W17G26    29.55R
EDEN PRAIRIE   CLOUDY    39  30  70 W20G31    29.54R
SOUTH ST PAUL  CLOUDY    40  31  68 W12G21    29.53S
LAKE ELMO      CLOUDY    37  32  81 W14G23    29.52S
$$
MNZ001>005-007-008-013>017-022>024-027-028-210300-
   Northwest Minnesota

CITY           SKY/WX    TMP DP  RH WIND       PRES   REMARKS
BEMIDJI        FLURRIES  32  28  86 NW20G29   29.49S WCI  20
HALLOCK        MIX PCPN  34  28  80 N24G37    29.62R WCI  21
ROSEAU         LGT SNOW  32  27  80 NW15G24   29.53R WCI  22
WARROAD        LGT SNOW  30  27  86 NW15G24   29.51R WCI  19
THIEF RVR FALL CLOUDY    34  27  75 NW24G31   29.58R WCI  21
CROOKSTON      CLOUDY    34  30  86 N30G37    29.62S WCI  20
FOSSTON        CLOUDY    30  27  86 NW18G31   29.57R WCI  18
DETROIT LAKES  MOCLDY    32  32 100 NW21G26   29.59S WCI  20
MOORHEAD       CLOUDY    36  30  80 N20       29.64S
PARK RAPIDS    FLURRIES  35  28  75 NW21G29   29.51R WCI  24
MAHNOMEN       CLOUDY    32  28  84 NW25G32   29.58R WCI  19
$$
MNZ006-009>011-018-025>026-210300-
   North Central Minnesota

CITY           SKY/WX    TMP DP  RH WIND       PRES   REMARKS
BAUDETTE       CLOUDY    32  28  85 NW21G35   29.44R WCI  20
FLAG ISLAND    LGT SNOW  32  30  93 NW20      29.45S WCI  20
INTL FALLS     LGT SNOW  33  31  92 W10       29.37S FOG     WCI  25
WASKISH        FLURRIES  34  30  86 W18       29.46S WCI  23
BIG FORK       LGT SNOW  34  30  86 NW7       29.41S WCI  28
LONGVILLE      FLURRIES  34  30  86 NW13G22   29.47R WCI  25
GRAND RAPIDS   CLOUDY    34  27  75 NW21G31   29.42S WCI  22
CRANE LAKE     CLOUDY    32  30  93 W7        29.35S WCI  26
ORR            LGT SNOW  32  30  93 W16G25    29.33S WCI  21
COOK           LGT SNOW  32  30  93 W13       29.36R WCI  22
$$
MNZ012-019>021-037-210300-
   Northeast Minnesota

CITY           SKY/WX    TMP DP  RH WIND       PRES   REMARKS
DULUTH         LGT SNOW  33  28  81 W18       29.37S WCI  22
ELY            LGT SNOW  32  30  93 W8        29.31S WCI  25
HIBBING        FLURRIES  33  28  81 NW15G22   29.37S WCI  23
EVELETH        LGT SNOW  32  32 100 W10G16    29.37S WCI  24
DULUTH HARBOR  MIX PCPN  37  32  81 SW15G22   29.41F
TWO HARBORS    FLURRIES  36  30  80 W7        29.34S
SILVER BAY     FLURRIES  36  28  75 SW3       29.32S
GRAND MARAIS     N/A     35  30  82 W9        29.29S WCI  28
G MARAIS ARPRT CLOUDY    28  25  86 W10G17    29.24S WCI  19
$$
MNZ029>031-032-039>041-046>048-054>057-064-210300-
   West Central Minnesota

CITY           SKY/WX    TMP DP  RH WIND       PRES   REMARKS
FERGUS FALLS   DRIZZLE   34  32  93 NW20G28   29.64R WCI  22
WHEATON        CLOUDY    37  28  70 NW16      29.66S
MORRIS         CLOUDY    36  34  93 NW21G26   29.62S
ALEXANDRIA     CLOUDY    35  29  78 NW23G32   29.58S WCI  23
ELBOW LAKE     LGT RAIN  34  33  94 NW18G28   29.62R WCI  23
WADENA         LGT RAIN  32  27  80 NW16G29   29.54S WCI  21
GLENWOOD       CLOUDY    36  30  80 NW23G30   29.59R
APPLETON       PTCLDY    39  34  81 NW16      29.65R
BENSON         CLOUDY    36  34  93 N13       29.63R
ORTONVILLE     CLOUDY    39  28  65 NW16      29.65S
MADISON        CLOUDY    43  28  56 NW18G29   29.66R
WILLMAR        FAIR      37  34  87 NW20      29.62R
$$
MNZ033>034-036-042>043-049>051-058-059-210300-
   Central Minnesota

CITY           SKY/WX    TMP DP  RH WIND       PRES   REMARKS
ST CLOUD       MIX PCPN  36  31  82 W18       29.54R
SAUK CENTRE    CLOUDY    35  28  75 NW22G28   29.56S WCI  24
PAYNESVILLE    CLOUDY    34  29  83 W16G23    29.58S WCI  23
AITKIN         FLURRIES  36  30  80 W7        29.45S
PINE RIVER     LGT SNOW  34  28  80 NW9G18    29.53S WCI  26
BRAINERD       LGT SNOW  33  30  88 W12G20    29.50S FOG     WCI  24
STAPLES        CLOUDY    32  28  86 NW18G26   29.53S WCI  20
LONG PRAIRIE   FLURRIES  32  30  93 W13G23    29.56S WCI  22
LITTLE FALLS   CLOUDY    34  30  86 W12G18    29.53S WCI  25
LITCHFIELD     CLOUDY    37  34  87 NW18G30   29.58S
BUFFALO        DRIZZLE   37  32  81 W20G26    29.56R
MAPLE LAKE     CLOUDY    38  33  83 W16G25    29.56R
$$
MNZ037-044-045-052-053-210300-
   East Central Minnesota

CITY           SKY/WX    TMP DP  RH WIND       PRES   REMARKS
PRINCETON      CLOUDY    37  30  75 W13G23    29.52S
MORA           CLOUDY    36  28  75 W10G20    29.50S
CAMBRIDGE      CLOUDY    39  28  65 W13       29.48F
RUSH CITY      CLOUDY    36  29  76 W7        29.49S
MOOSE LAKE     FLURRIES  32  30  93 CALM      29.43S
HINCKLEY       CLOUDY    36  32  87 W7        29.47S
CLOQUET        LGT SNOW  34  28  80 W10G18    29.40F WCI  26
MCGREGOR       CLOUDY    34  32  93 W7G16     29.45S WCI  28
$$
MNZ071>073-080-081-089-090-097-098-210300-
   Southwest Minnesota

CITY           SKY/WX    TMP DP  RH WIND       PRES   REMARKS
MONTEVIDEO     LGT RAIN  39  34  81 N18G25    29.66R
GRANITE FALLS  CLOUDY    38  32  77 NW13      29.66S
CANBY          CLOUDY    41  27  57 NW13      29.68R
MARSHALL       CLOUDY    41  25  52 NW17G25   29.66R
REDWOOD FALLS  CLOUDY    41  31  67 NW15G25   29.63R
OLIVIA         MOCLDY    36  32  87 NW17G25   29.62R
PIPESTONE      CLEAR     41  27  56 N9G17     29.68R
WINDOM         MOCLDY    41  28  60 NW18G28   29.65S
WORTHINGTON    PTCLDY    39  25  56 NW17      29.68R
JACKSON        CLOUDY    41  28  60 NW10      29.66R
TRACY          CLOUDY    42  27  55 NW21      29.66S
SLAYTON        PTCLDY    39  27  60 NW15      29.67S
$$
MNZ065>067-074>077-082>085-091>093-210300-
   South Central Minnesota

CITY           SKY/WX    TMP DP  RH WIND       PRES   REMARKS
MANKATO        CLOUDY    39  30  70 W16G22    29.61R
NEW ULM        CLOUDY    39  28  65 NW23G30   29.62R
ST JAMES       MOCLDY    43  27  52 W17G24    29.65R
FAIRMONT       MOCLDY    39  25  56 W14       29.64S
GLENCOE        CLOUDY    39  34  81 W22       29.58S
FARIBAULT      CLOUDY    39  34  81 W21G30    29.58S
OWATONNA       RAIN      37  34  87 W17       29.59S
WASECA         LGT RAIN  39  32  75 W22       29.62R
ALBERT LEA     PTCLDY    39  30  70 W10G21    29.60F
$$
MNZ078>079-086>088-094>096-210300-
   Southeast Minnesota

CITY           SKY/WX    TMP DP  RH WIND       PRES   REMARKS
ROCHESTER      FLURRIES  36  32  85 W24G31    29.57R
RED WING       CLOUDY    43  30  61 W12G23    29.52R
STANTON        MOCLDY    40  31  70 W16G24    29.55R
DODGE CENTER   CLOUDY    37  34  87 W17G28    29.57S
WINONA         MOCLDY    41  30  65 W16G23    29.54S
AUSTIN         MOCLDY    39  30  70 W14G23    29.59S
PRESTON        CLOUDY    37  32  82 W21G28    29.58S
$$
ABBREVIATIONS USED IN REMARKS
   TC - TEMPERATURES IN CELSIUS
  WCI - WIND CHILL INDEX
   HX - HEAT INDEX
  VSB - VISIBILITY
$$



USA.gov is the U.S. government's official web portal to all federal, state and local government web resources and services.